History for RBD, Texas on Wednesday, October 6, 2004

Jump to data by:

Latest visited Airport Codes: RBD

Data type:
 

« Previous Day | Next Day »

 
Daily Summary
Actual Average (KRBD) Record (KRBD)
Temperature
Mean Temperature 73 °F -  
Max Temperature 82 °F 78 °F 93 °F (2002)
Min Temperature 64 °F 58 °F 46 °F (2001)
Cooling Degree Days 8    
Growing Degree Days 23 (Base 50)    
Moisture
Dew Point 65 °F    
Average Humidity 80    
Maximum Humidity 100    
Minimum Humidity 60    
Precipitation
Precipitation 0.00 in - - ()
Sea Level Pressure
Sea Level Pressure 30.10 in    
Wind
Wind Speed 8 mph (ESE)    
Max Wind Speed 12 mph    
Max Gust Speed -    
Visibility 10 miles    
Events Rain   
Averages and records for this station are not official NWS values.
Click here for data from the nearest station with official NWS data (KRBD).
Key: T is trace of precipitation, MM is missing value
Source: NWS Daily Summary
Seasonal Weather Averages
Time (CDT) Temp. Dew Point Humidity Sea Level Pressure Visibility Wind Direction Wind Speed Gust Speed Precip. Events Conditions
12:53 AM 68.0 °F 64.9 °F 90% 30.11 in 10.0 miles ESE 8.1 mph - N/A   Mostly Cloudy
1:53 AM 66.9 °F 64.9 °F 93% 30.11 in 9.0 miles ESE 5.8 mph - N/A   Partly Cloudy
2:53 AM 66.9 °F 64.0 °F 90% 30.11 in 10.0 miles East 6.9 mph - N/A   Mostly Cloudy
3:53 AM 66.9 °F 63.0 °F 87% 30.10 in 10.0 miles ESE 6.9 mph - 0.00 in Rain Light Rain
4:53 AM 66.0 °F 63.0 °F 90% 30.09 in 10.0 miles East 6.9 mph - 0.00 in   Clear
5:53 AM 64.9 °F 60.1 °F 84% 30.10 in 10.0 miles East 8.1 mph - N/A   Clear
6:53 AM 64.9 °F 59.0 °F 81% 30.12 in 10.0 miles East 5.8 mph - N/A   Overcast
7:53 AM 64.0 °F 57.9 °F 80% 30.13 in 10.0 miles ESE 5.8 mph - N/A   Scattered Clouds
8:53 AM 64.9 °F 57.9 °F 78% 30.14 in 10.0 miles ESE 6.9 mph - N/A   Clear
9:53 AM 68.0 °F 60.1 °F 76% 30.14 in 10.0 miles ESE 8.1 mph - N/A   Clear
10:53 AM 72.0 °F 63.0 °F 73% 30.15 in 10.0 miles SE 8.1 mph - N/A   Clear
11:53 AM 75.9 °F 64.9 °F 69% 30.13 in 10.0 miles ESE 9.2 mph - N/A   Clear
12:53 PM 79.0 °F 66.9 °F 66% 30.11 in 10.0 miles SE 10.4 mph - N/A   Clear
1:53 PM 82.9 °F 68.0 °F 60% 30.09 in 10.0 miles SE 11.5 mph - N/A   Scattered Clouds
2:53 PM 80.1 °F 66.0 °F 62% 30.07 in 10.0 miles SSE 9.2 mph - N/A   Partly Cloudy
4:53 PM 82.0 °F 68.0 °F 62% 30.06 in 10.0 miles SE 10.4 mph - N/A   Partly Cloudy
5:53 PM 80.1 °F 69.1 °F 69% 30.06 in 8.0 miles ESE 8.1 mph - N/A   Clear
6:53 PM 78.1 °F 69.1 °F 74% 30.06 in 8.0 miles ESE 6.9 mph - N/A   Clear
7:53 PM 75.9 °F 69.1 °F 79% 30.07 in 9.0 miles East 5.8 mph - N/A   Clear
8:53 PM 73.9 °F 69.1 °F 85% 30.09 in 9.0 miles ESE 4.6 mph - N/A   Partly Cloudy
9:53 PM 72.0 °F 68.0 °F 87% 30.12 in 10.0 miles SSE 11.5 mph - N/A   Overcast
10:53 PM 70.0 °F 69.1 °F 97% 30.12 in 10.0 miles ESE 4.6 mph - 0.00 in Rain Light Rain
11:53 PM 69.1 °F 69.1 °F 100% 30.12 in 10.0 miles SSE 6.9 mph - 0.00 in   Mostly Cloudy

Powered by the Weather Underground, Inc.